Regional Weather Roundup
Issued by NWS Mobile, AL

Home | Current Version | Previous Version | Text Only | Print | Product List | Glossary On
Versions: 1 2 3 4 5 6 7 8 9 10 11 12 13 14 15 16 17 18 19 20 21 22 23 24 25 26 27 28 29 30 31 32 33 34 35 36 37 38 39 40 41 42 43 44 45 46 47 48 49 50
882
ASUS44 KMOB 250412
RWRMOB
REGIONAL WEATHER ROUNDUP
NATIONAL WEATHER SERVICE MOBILE AL
1000 PM CST FRI NOV 24 2017

NOTE: "FAIR" INDICATES FEW OR NO CLOUDS BELOW 12,000 FEET WITH NO
      SIGNIFICANT WEATHER AND/OR OBSTRUCTIONS TO VISIBILITY.

  * THESE STATIONS ARE PART OF THE UNIVERSITY OF SOUTH ALABAMA
    MESONET AND ARE NOT UNDER NWS OR FAA QUALITY CONTROL.

ALZ061>064-250500-
COASTAL ALABAMA

CITY           SKY/WX    TMP DP  RH WIND       PRES   REMARKS
MOBILE REG APT CLEAR     43  40  89 S3        30.00S
BROOKLEY FIELD CLEAR     49  47  93 SW6       30.01R
USA CAMPUS*    NOT AVBL
DOG RIVER*     NOT AVBL


CITY           SKY/WX    TMP DP  RH WIND       PRES   REMARKS
GULF SHORES    CLEAR     45  45 100 CALM      30.00R

$$

ALZ051>060-250500-
INTERIOR SOUTHWEST AND SOUTH CENTRAL ALABAMA

CITY           SKY/WX    TMP DP  RH WIND       PRES   REMARKS
GREENVILLE     CLEAR     47  42  83 CALM      29.99R
EVERGREEN      CLEAR     45  42  89 CALM      30.00R
ATMORE*          N/A    N/A N/A N/A CALM        N/A
ANDALUSIA/OPP  CLEAR     50  46  86 CALM      29.98S
ANDALUSIA*       N/A     50  48  93 CALM      29.98R
FLORALA APT    CLEAR     47  44  90 CALM      30.01S
FLORALA*         N/A     46  45  93 CALM      30.67S

$$

FLZ001>006-250500-
WESTERN FLORIDA PANHANDLE

CITY           SKY/WX    TMP DP  RH WIND       PRES   REMARKS
PENSACOLA      CLEAR     57  52  83 CALM      29.99R
NAS PENSACOLA  CLEAR     49  47  93 NW3       29.99R
MILTON         CLEAR     49  44  83 CALM      29.99R
WHTNG S FIELD  CLEAR     52  45  77 CALM      29.99R


CITY           SKY/WX    TMP DP  RH WIND       PRES   REMARKS
JAY*             N/A     50  46  87 CALM      30.00R
DUKE FIELD     CLEAR     46  43  91 CALM      29.98R
CRESTVIEW      CLEAR     44  42  93 CALM      30.00R
VALPARAISO     PTCLDY    50  46  87 CALM      29.98S
DESTIN         PTCLDY    56  50  80 CALM      29.98S

$$

MSZ076-079-250500-
INTERIOR SOUTHEAST MISSISSIPPI

CITY           SKY/WX    TMP DP  RH WIND       PRES   REMARKS
LEAKESVILLE*     N/A     45  39  81 CALM      30.01R
AGRICOLA*        N/A     43  41  93 CALM      29.99R

$$

MARINE OBSERVATIONS

STATION/POSITION TIME  TEMP    WIND        PRES    WAVE
                       AIR SEA DIR/SP/G            HT/PER
                 (UTC) (F)     (DEG/KT/KT) (MB)    (FT/S)
PASCAGOULA       0348   51      CALM  /  1 1015.7R
PETIT BOIS ISLND 0348   58     310/  6/  7 1016.7R
GRAND BAY        0230   53     310/  3     1016.0S
KATRINA CUT      0330   59     310/  7     1015.9R
CEDAR POINT      0330   55     340/  6     1015.6R
E DAUPHIN ISLAND 0300   59     220/  2/  3 1015.4R
MIDDLE BAY LIGHT 0330   57     280/  9     1015.9R
USCG MOBILE BAY  0348   51 63  270/  3/  4 1015.7R
STATE DOCKS      0342   52 65              1015.6R
MEAHER PARK      0330   54      90/  1     1016.3R
WEEKS BAY        0245   48                 1015.0S
FORT MORGAN      0348   60     320/  6/  8   N/A
12 S ORANGE BCH  NOT AVBL
PENSACOLA BAY    0342   58 62              1015.6R
64 S DAUPHIN ISL 0400   66 77  260/  4/  8 1015.8
67 S FORT MORGAN 0330   65     310/  2     1015.2S

$$

SELECTED LOCATIONS ACROSS THE REGION

CITY           SKY/WX    TMP DP  RH WIND       PRES   REMARKS
NEW ORLEANS    PTCLDY    48  41  76 SW3       30.00S
GULFPORT       CLEAR     41  38  89 CALM      30.00S
PASCAGOULA AP  CLEAR     37  34  89 CALM      30.00S FOG
PASCAGOULA*      N/A     36  36 100 CALM        N/A
HATTIESBURG    CLEAR     40  38  93 CALM      30.00S
LAUREL         CLEAR     38  34  85 CALM      30.00R
MERIDIAN       CLEAR     39  36  89 CALM      29.99S
JACKSON        CLEAR     43  34  70 CALM      29.96F
MONTGOMERY     CLEAR     48  44  86 CALM      30.00R
TROY           CLOUDY    45  45 100 CALM      30.00R
ASHFORD*         N/A     50  48  93 CALM      29.98R
DOTHAN         CLEAR     46  44  93 CALM      30.02S
PANAMA CITY    CLEAR     48  46  93 CALM      29.98S

$$





USA.gov is the U.S. government's official web portal to all federal, state and local government web resources and services.